A form allowing access to any MPEC is at the bottom of this page.
Read MPEC 2003-O32
Read MPEC 2003-O34
M.P.E.C. 2003-O33 Issued 2003 July 30, 18:48 UT
The Minor Planet Electronic Circulars contain information on unusual
minor planets and routine data on comets. They are published
on behalf of Commission 20 of the International Astronomical Union by the
Minor Planet Center, Smithsonian Astrophysical Observatory,
Cambridge, MA 02138, U.S.A.
Prepared using the Tamkin Foundation Computer Network
MPC@CFA.HARVARD.EDU
URL http://cfa-www.harvard.edu/iau/mpc.html ISSN 1523-6714
COMET C/2003 F1 (LINEAR)
Observations:
CK03F010 C2003 07 02.92756 15 50 23.98 +43 16 49.8 A46
CK03F010 C2003 07 02.92903 15 50 23.98 +43 16 48.6 A46
CK03F010 C2003 07 02.93049 15 50 23.91 +43 16 46.9 A46
CK03F010 C2003 07 02.93197 15 50 23.80 +43 16 45.0 A46
CK03F010 C2003 07 02.93344 15 50 23.70 +43 16 43.5 A46
CK03F010 C2003 07 02.93492 15 50 23.71 +43 16 42.5 A46
CK03F010 C2003 07 07.01336 15 47 57.61 +42 03 53.1 204
CK03F010 C2003 07 07.01643 15 47 57.63 +42 03 50.5 16.9 T 204
CK03F010 C2003 07 07.02442 15 47 57.26 +42 03 41.2 204
CK03F010 C2003 07 07.51610 15 47 41.40 +41 54 46.1 17.1 T 360
CK03F010 C2003 07 07.51872 15 47 41.31 +41 54 43.1 360
CK03F010 C2003 07 07.89260 15 47 29.34 +41 47 53.7 118
CK03F010 C2003 07 07.89575 15 47 29.28 +41 47 49.8 118
CK03F010 C2003 07 07.89865 15 47 29.14 +41 47 47.6 048
CK03F010 C2003 07 07.89899 15 47 29.18 +41 47 46.0 16.8 N 118
CK03F010 C2003 07 07.90096 15 47 29.11 +41 47 44.4 048
CK03F010 C2003 07 07.90321 15 47 29.05 +41 47 42.3 048
CK03F010 C2003 07 07.90775 15 47 28.85 +41 47 36.8 048
CK03F010 C2003 07 07.91334 15 47 28.71 +41 47 29.7 048
CK03F010 C2003 07 07.91904 15 47 28.46 +41 47 23.9 A46
CK03F010 C2003 07 07.92051 15 47 28.42 +41 47 22.6 A46
CK03F010 C2003 07 07.92199 15 47 28.37 +41 47 20.7 A46
CK03F010 C2003 07 07.92346 15 47 28.32 +41 47 19.0 A46
CK03F010 C2003 07 07.92493 15 47 28.27 +41 47 18.8 A46
CK03F010 C2003 07 07.92641 15 47 28.26 +41 47 17.3 A46
CK03F010 C2003 07 08.22814 15 47 18.80 +41 41 44.1 16.7 T 785
CK03F010 C2003 07 08.23913 15 47 18.47 +41 41 32.7 16.0 T 785
CK03F010 C2003 07 08.25036 15 47 18.12 +41 41 20.6 16.3 T 785
CK03F010 C2003 07 08.29126 15 47 16.68 +41 40 34.7 17.1 N H41
CK03F010 C2003 07 08.92367 15 46 57.42 +41 28 58.3 118
CK03F010 C2003 07 08.92718 15 46 57.34 +41 28 54.6 118
CK03F010 C2003 07 08.92959 15 46 57.26 +41 28 52.1 17.1 N 118
CK03F010 C2003 07 08.97353 15 46 55.81 +41 28 03.4 A46
CK03F010 C2003 07 08.97647 15 46 55.79 +41 28 00.4 A46
CK03F010 C2003 07 08.98681 15 46 55.47 +41 27 49.3 A46
CK03F010 C2003 07 08.98973 15 46 55.40 +41 27 45.3 A46
CK03F010 C2003 07 08.99267 15 46 55.46 +41 27 41.4 A46
CK03F010 C2003 07 09.25828 15 46 47.32 +41 22 47.5 17.5 T 762
CK03F010 C2003 07 09.26307 15 46 47.22 +41 22 43.6 17.5 T 762
CK03F010 C2003 07 09.27323 15 46 46.87 +41 22 31.3 17.1 T 762
CK03F010 C2003 07 10.21920 15 46 19.34 +41 05 02.1 17.5 T 704
CK03F010 C2003 07 10.22910 15 46 19.07 +41 04 50.4 17.9 T 704
CK03F010 C2003 07 10.23938 15 46 18.79 +41 04 40.2 17.6 T 704
CK03F010 C2003 07 10.24932 15 46 18.50 +41 04 28.2 17.7 T 704
CK03F010 C2003 07 10.25920 15 46 18.14 +41 04 18.2 17.7 T 704
CK03F010 C2003 07 10.92738 15 45 59.63 +40 51 50.3 A46
CK03F010 C2003 07 10.92885 15 45 59.51 +40 51 48.4 A46
CK03F010 C2003 07 10.93325 15 45 59.38 +40 51 43.9 A46
CK03F010 C2003 07 10.93473 15 45 59.28 +40 51 42.3 A46
CK03F010 C2003 07 10.93620 15 45 59.25 +40 51 40.9 A46
CK03F010 C2003 07 10.93767 15 45 59.21 +40 51 38.9 A46
CK03F010 C2003 07 10.97209 15 45 58.49 +40 51 01.5 17.2 N J97
CK03F010 C2003 07 10.97657 15 45 58.12 +40 50 56.4 17.2 N J97
CK03F010 C2003 07 11.16152 15 45 53.15 +40 47 29.3 17.5 T H41
CK03F010 C2003 07 11.16726 15 45 53.02 +40 47 22.9 17.4 T H41
CK03F010 C2003 07 11.95046 15 45 32.11 +40 32 42.7 17.2 T 213
CK03F010 C2003 07 11.95400 15 45 32.01 +40 32 38.5 17.2 T 213
CK03F010 C2003 07 11.95759 15 45 31.95 +40 32 34.0 17.2 T 213
CK03F010 C2003 07 14.88394 15 44 21.42 +39 37 12.9 A46
CK03F010 C2003 07 14.88541 15 44 21.29 +39 37 11.5 A46
CK03F010 C2003 07 14.88834 15 44 21.26 +39 37 07.5 A46
CK03F010 C2003 07 14.89424 15 44 21.08 +39 37 00.2 A46
CK03F010 C2003 07 14.89572 15 44 21.03 +39 36 58.5 A46
CK03F010 C2003 07 14.89719 15 44 21.01 +39 36 57.8 A46
CK03F010 C2003 07 15.01271 15 44 18.47 +39 34 44.2 16.7 T A32
CK03F010 C2003 07 15.01861 15 44 18.33 +39 34 37.6 16.7 T A32
CK03F010 C2003 07 15.02156 15 44 18.32 +39 34 34.7 16.9 T A32
CK03F010 C2003 07 15.24884 15 44 13.25 +39 30 15.6 16.9 T H41
CK03F010 C2003 07 15.25554 15 44 13.15 +39 30 07.8 16.8 T H41
CK03F010 C2003 07 15.51076 15 44 07.61 +39 25 14.8 340
CK03F010 C2003 07 15.51310 15 44 07.63 +39 25 12.5 340
CK03F010 C2003 07 15.51620 15 44 07.67 +39 25 07.2 16.1 T 340
CK03F010 C2003 07 15.87034 15 44 00.11 +39 18 22.6 A46
CK03F010 C2003 07 15.87181 15 44 00.10 +39 18 20.6 A46
CK03F010 C2003 07 15.87328 15 43 59.99 +39 18 19.2 A46
CK03F010 C2003 07 15.87769 15 44 00.00 +39 18 14.0 A46
CK03F010 C2003 07 15.88212 15 43 59.87 +39 18 07.2 A46
CK03F010 C2003 07 15.88360 15 43 59.83 +39 18 06.6 A46
CK03F010 C2003 07 15.90243 15 43 59.36 +39 17 43.5 048
CK03F010 C2003 07 15.90388 15 43 59.33 +39 17 43.0 048
CK03F010 C2003 07 15.90534 15 43 59.28 +39 17 41.7 048
CK03F010 C2003 07 15.90678 15 43 59.27 +39 17 40.1 048
CK03F010 C2003 07 15.90969 15 43 59.17 +39 17 36.6 048
CK03F010 C2003 07 16.17965 15 43 53.68 +39 12 26.4 16.6 T H41
CK03F010 C2003 07 16.18403 15 43 53.56 +39 12 21.9 16.6 T H41
CK03F010 C2003 07 16.90986 15 43 39.11 +38 58 26.6 17.1 N 442
CK03F010 C2003 07 16.94128 15 43 38.41 +38 57 47.9 118
CK03F010 C2003 07 16.95005 15 43 38.16 +38 57 37.7 118
CK03F010 C2003 07 16.95340 15 43 38.16 +38 57 33.4 17.3 N 118
CK03F010 C2003 07 17.13453 15 43 34.81 +38 54 04.8 17.9 T H72
CK03F010 C2003 07 17.13646 15 43 34.69 +38 54 03.0 17.7 T H72
CK03F010 C2003 07 17.13850 15 43 34.66 +38 54 01.3 17.8 T H72
CK03F010 C2003 07 17.17340 15 43 34.04 +38 53 20.9 16.7 T H72
CK03F010 C2003 07 17.17632 15 43 33.94 +38 53 17.0 16.9 T H72
CK03F010 C2003 07 17.21927 15 43 33.11 +38 52 27.3 16.9 T H41
CK03F010 C2003 07 18.22375 15 43 14.58 +38 33 02.9 17.7 T 762
CK03F010 C2003 07 18.22784 15 43 14.54 +38 32 57.9 762
CK03F010 C2003 07 18.23231 15 43 14.47 +38 32 52.8 762
CK03F010 C2003 07 18.89593 15 43 03.00 +38 20 01.2 A46
CK03F010 C2003 07 18.89740 15 43 02.97 +38 19 59.7 A46
CK03F010 C2003 07 18.89887 15 43 02.95 +38 19 57.4 A46
CK03F010 C2003 07 18.90035 15 43 02.97 +38 19 56.0 A46
CK03F010 C2003 07 18.90182 15 43 02.94 +38 19 53.4 A46
CK03F010 C2003 07 18.90329 15 43 02.88 +38 19 51.5 A46
CK03F010 C2003 07 18.93806 15 43 02.34 +38 19 13.2 16.9 N 442
CK03F010 C2003 07 18.94139 15 43 02.21 +38 19 08.8 17.0 N 442
CK03F010 C2003 07 19.87616 15 42 47.03 +38 00 59.1 A46
CK03F010 C2003 07 19.87762 15 42 47.00 +38 00 56.7 A46
CK03F010 C2003 07 19.87909 15 42 46.94 +38 00 55.6 A46
CK03F010 C2003 07 19.88204 15 42 46.94 +38 00 50.9 A46
CK03F010 C2003 07 19.88411 15 42 46.98 +38 00 49.7 17.0 T 232
CK03F010 C2003 07 19.88498 15 42 46.83 +38 00 47.4 A46
CK03F010 C2003 07 19.88646 15 42 46.84 +38 00 46.7 A46
CK03F010 C2003 07 19.89218 15 42 46.77 +38 00 39.3 048
CK03F010 C2003 07 19.89328 15 42 46.79 +38 00 37.2 048
CK03F010 C2003 07 19.89549 15 42 46.68 +38 00 35.1 048
CK03F010 C2003 07 19.89648 15 42 46.70 +38 00 35.4 17.1 T 232
CK03F010 C2003 07 19.89885 15 42 46.60 +38 00 30.9 048
CK03F010 C2003 07 19.89995 15 42 46.58 +38 00 29.9 048
CK03F010 C2003 07 19.95418 15 42 45.81 +37 59 26.7 170
CK03F010 C2003 07 19.95494 15 42 45.76 +37 59 26.3 170
CK03F010 C2003 07 19.95648 15 42 45.74 +37 59 24.4 170
CK03F010 C2003 07 20.15218 15 42 42.70 +37 55 36.7 17.5 T H72
CK03F010 C2003 07 20.15449 15 42 42.70 +37 55 35.4 17.5 T H72
CK03F010 C2003 07 20.89716 15 42 31.98 +37 41 04.5 A46
CK03F010 C2003 07 20.89861 15 42 31.83 +37 41 01.4 A46
CK03F010 C2003 07 20.90008 15 42 31.88 +37 41 00.2 A46
CK03F010 C2003 07 20.90155 15 42 31.77 +37 40 57.8 A46
CK03F010 C2003 07 20.90303 15 42 31.69 +37 40 56.9 A46
CK03F010 C2003 07 20.90597 15 42 31.66 +37 40 52.6 A46
CK03F010 C2003 07 20.94877 15 42 30.97 +37 40 03.1 17.8 N J87
CK03F010 C2003 07 20.95167 15 42 30.92 +37 40 00.2 17.8 N J87
CK03F010 C2003 07 20.95447 15 42 30.81 +37 39 57.1 18.0 N J87
CK03F010 C2003 07 24.86650 15 41 44.69 +36 23 06.1 17.1 N J87
CK03F010 C2003 07 24.87172 15 41 44.64 +36 23 00.3 17.4 N J87
CK03F010 C2003 07 24.87731 15 41 44.71 +36 22 53.7 17.9 N J87
CK03F010 C2003 07 25.91129 15 41 35.59 +36 02 28.1 17.0 T 232
CK03F010 C2003 07 25.92040 15 41 35.53 +36 02 16.1 17.1 T 232
CK03F010 C2003 07 25.93609 15 41 35.41 +36 01 57.4 17.0 T 213
CK03F010 C2003 07 25.93778 15 41 35.40 +36 01 55.5 17.0 T 213
CK03F010 C2003 07 25.93948 15 41 35.31 +36 01 53.0 17.0 T 213
CK03F010 C2003 07 25.97766 15 41 35.03 +36 01 05.5 17.0 T A01
CK03F010 C2003 07 25.98860 15 41 34.88 +36 00 52.3 17.0 T A01
CK03F010 C2003 07 25.99078 15 41 34.84 +36 00 49.6 17.0 T A01
CK03F010 C2003 07 26.57448 15 41 30.45 +35 49 20.5 17.5 T 900
CK03F010 C2003 07 26.57889 15 41 30.41 +35 49 14.9 17.0 T 900
CK03F010 C2003 07 29.92802 15 41 12.73 +34 42 45.8 17.0 N 442
CK03F010 C2003 07 29.93231 15 41 12.73 +34 42 38.6 17.0 N 442
CK03F010 C2003 07 29.93750 15 41 12.75 +34 42 33.4 16.9 N 442
Observer details:
048 Hradec Kralove. Observer M. Lehky. 0.40-m f/5 reflector + CCD.
118 Modra. Observers S. Gajdos, J. Vilagi. 0.6-m f/5.5 reflector + CCD.
170 Observatorio de Begues. Observer J. Manteca. 0.31-m f/6.3
Schmidt-Cassegrain + CCD.
204 Schiaparelli Observatory. Observers L. Buzzi, A. Aletti. 0.60-m f/4.64
Newtonian + CCD.
213 Observatorio Montcabre. Observer R. Naves. Measurer M. Campas. 0.30-m
f/5.5 Schmidt-Cassegrain + CCD.
232 Masquefa Observatory. Observer E. Reina. 0.25-m f/3.3 Schmidt-Cassegrain
+ CCD.
340 Toyonaka. Observer Y. Ezaki. 0.30-m f/6 reflector + CCD.
360 Kuma Kogen. Observer A. Nakamura. 0.60-m f/5.8 Ritchey-Chretien + CCD.
442 Gualba Observatory. Observer A. Sanchez. 0.31-m f/3.3 Schmidt-Cassegrain
+ CCD.
704 Lincoln Laboratory ETS, New Mexico. Observers M. Blythe, F. Shelly,
M. Bezpalko, R. Huber, L. Manguso, S. Adams, D. Torres, T. Brothers,
S. Partridge. Measurers J. Stuart, R. Sayer, J. Evans, P. Hopman. 1.0-m
f/2.15 reflector + CCD.
762 Four Winds Observatory, Lake Leelanau. Observer R. Elliott. 0.3-m f/10
reflector + CCD.
785 Fitz-Randolph Observatory, Princeton. Observer J. Maffei. 0.91-m f/13.6
Cassegrain + CCD.
900 Moriyama. Observer Y. Ikari. 0.25-m f/6.3 Schmidt-Cassegrain + CCD.
A01 Masia Cal Maciarol Modul 1. Observer F. Baldris. 0.20-m f/5.0 Newtonian
+ CCD.
A32 Panker. Observer H. Denzau. 0.36-m Schmidt-Cassegrain f/5.5 + CCD.
A46 Lelekovice. Observer K. Hornoch. 0.35-m f/4.7 reflector + CCD.
H41 Petit Jean Mountain. Observer P. C. Sherrod. 0.41-m f/3.7
Schmidt-Cassegrain + CCD.
H72 Evelyn L. Egan Observatory, Fort Myers. Observers M. Fauerbach, M. Mon.
0.40-m f/5.3 reflector + CCD.
J87 La Canada. Observer J. Lacruz. 0.30-m f/3.3 Schmidt-Cassegrain + CCD.
J97 Alginet. Observer T. Climent G. 0.25-m f/4 Schmidt-Cassegrain + CCD.
Orbital elements:
C/2003 F1 (LINEAR)
Epoch 2003 June 10.0 TT = JDT 2452800.5
T 2003 June 28.42554 TT MPC
q 4.0078390 (2000.0) P Q
n 0.01049435 Peri. 121.18221 -0.31191327 +0.13753577
a 20.6616814 Node 87.48784 -0.78317100 -0.59741626
e 0.8060255 Incl. 70.22146 +0.53791569 -0.79004919
P 93.92
From 1048 observations 2003 Mar. 23-July 29, mean residual 0".60.
Brian G. Marsden (C) Copyright 2003 MPC M.P.E.C. 2003-O33
Read MPEC 2003-O32
Read MPEC 2003-O34
Enter an MPEC number in one of the following forms: